Date String (YYYY-MM-DD hh:mm:ss) UTC,Instrument flags,absolute air pressure of the measurement (hPa),sample flow rate (lpm),inlet stack bypass flow (lpm),air temperature of the measurement (°C),ambient temperature measured by the external sensor (°C),aerosol sample conditioner tube jacket temperature (°C),OPC LED temperature (°C),internal box temperature (°C),relative humidity of the measurement (%),span deviation,mass concentration of particles derived from Lorenz-Mie calculation of OPC scattering (μg/m³),mass concentration of particles derived from Lorenz-Mie calculation of OPC scattering (μg/m³),mass concentration of particles derived from Lorenz-Mie calculation of OPC scattering (μg/m³)
DateTimeUTC,F1_M11,P_M11,Q1_M11,Q2_M11,T1_M11,T2_M11,T3_M11,T4_M11,T5_M11,U1_M11,ZSPAN_M11,X2_M11,X0_M11,X1_M11
2024-06-10 12:00:00,SystemResetWarning,0829.9,4.99,000.00,031.2,030.4,000.0,039.7,032.8,031.1,0000.4,0009.11,0014.55,0008.36
2024-06-10 12:01:00,SystemResetWarning,0829.9,4.99,000.00,031.2,030.4,000.0,039.7,032.8,031.2,0000.1,0009.22,0014.89,0008.41
2024-06-10 12:02:00,SystemResetWarning,0829.8,5.00,000.00,031.2,030.4,000.0,039.7,032.8,031.4,0000.1,0009.23,0015.00,0008.44
2024-06-10 12:03:00,SystemResetWarning,0829.8,5.00,000.00,031.2,030.4,000.0,039.7,032.9,031.4,0000.0,0009.26,0014.89,0008.48
2024-06-10 12:04:00,SystemResetWarning,0829.8,5.00,000.00,031.1,030.4,000.0,039.7,032.8,031.5,0000.0,0009.30,0014.20,0008.53
2024-06-10 12:05:00,SystemResetWarning,0829.8,5.00,000.00,031.2,030.4,000.0,039.7,032.9,031.5,0000.0,0009.32,0014.29,0008.55
2024-06-10 12:06:00,SystemResetWarning,0829.8,5.00,000.00,031.2,030.4,000.0,039.7,032.8,031.5,0000.0,0009.27,0014.48,0008.55
2024-06-10 12:07:00,SystemResetWarning,0829.8,5.01,000.00,031.2,030.4,000.0,039.7,032.8,031.5,0000.0,0009.28,0014.51,0008.57
2024-06-10 12:08:00,SystemResetWarning,0829.8,5.00,000.00,031.2,030.4,000.0,039.7,032.8,031.4,0000.0,0009.27,0014.81,0008.59
2024-06-10 12:09:00,SystemResetWarning,0829.8,5.01,000.00,031.1,030.4,000.0,039.7,032.8,031.5,-000.0,0009.26,0014.85,0008.60
2024-06-10 12:10:00,SystemResetWarning,0829.8,4.99,000.00,031.2,030.4,000.0,039.6,032.8,031.5,-000.4,0009.26,0014.58,0008.61
2024-06-10 12:11:00,SystemResetWarning,0829.8,5.00,000.00,031.2,030.4,000.0,039.6,032.9,031.5,-000.4,0009.32,0014.75,0008.64
2024-06-10 12:12:00,SystemResetWarning,0829.8,5.00,000.00,031.2,030.4,000.0,039.6,032.9,031.6,-000.4,0009.34,0014.84,0008.65
2024-06-10 12:13:00,SystemResetWarning,0829.8,5.01,000.00,031.2,030.4,000.0,039.6,032.9,031.7,-000.4,0009.35,0014.67,0008.66
2024-06-10 12:14:00,SystemResetWarning,0829.8,5.01,000.00,031.2,030.4,000.0,039.6,032.9,031.8,0000.2,0009.34,0014.44,0008.68
2024-06-10 12:15:00,SystemResetWarning,0829.8,4.99,000.00,031.2,030.4,000.0,039.6,032.9,031.8,-000.4,0009.35,0014.59,0008.69
2024-06-10 12:16:00,SystemResetWarning,0829.8,4.99,000.00,031.2,030.4,000.0,039.6,032.9,031.8,-000.2,0009.36,0014.78,0008.70
2024-06-10 12:17:00,SystemResetWarning,0829.8,5.00,000.00,031.2,030.4,000.0,039.6,032.9,031.9,0000.2,0009.37,0014.45,0008.70
2024-06-10 12:18:00,SystemResetWarning,0829.9,5.01,000.00,031.2,030.4,000.0,039.6,032.9,031.9,0000.8,0009.39,0014.31,0008.71
2024-06-10 12:19:00,SystemResetWarning,0829.9,5.01,000.00,031.2,030.4,000.0,039.6,032.9,032.0,0000.8,0009.42,0014.66,0008.74
2024-06-10 12:20:00,SystemResetWarning,0830.0,5.00,000.00,031.2,030.4,000.0,039.6,032.9,032.0,0000.9,0009.47,0014.57,0008.78
2024-06-10 12:21:00,SystemResetWarning,0830.0,4.99,000.00,031.2,030.4,000.0,039.6,032.9,031.8,0001.9,0009.52,0015.07,0008.81
2024-06-10 12:22:00,SystemResetWarning,0830.0,4.99,000.00,031.2,030.4,000.0,039.7,032.9,031.7,0002.4,0009.52,0014.76,0008.81
2024-06-10 12:23:00,SystemResetWarning,0830.0,5.00,000.00,031.2,030.4,000.0,039.7,032.9,031.8,0002.4,0009.51,0014.43,0008.80
2024-06-10 12:24:00,SystemResetWarning,0830.0,5.00,000.00,031.2,030.4,000.0,039.7,032.9,031.9,0002.2,0009.49,0014.41,0008.80
2024-06-10 12:25:00,SystemResetWarning,0830.0,5.00,000.00,031.2,030.5,000.0,039.7,032.9,031.9,0002.4,0009.48,0014.39,0008.79
2024-06-10 12:26:00,SystemResetWarning,0829.9,5.01,000.00,031.2,030.5,000.0,039.7,032.9,031.9,0002.7,0009.49,0014.53,0008.80
2024-06-10 12:27:00,SystemResetWarning,0829.9,5.01,000.00,031.2,030.5,000.0,039.7,032.9,032.1,0002.5,0009.52,0014.24,0008.82
2024-06-10 12:28:00,SystemResetWarning,0829.9,5.00,000.00,031.2,030.5,000.0,039.7,032.9,032.2,0002.2,0009.59,0014.34,0008.85
2024-06-10 12:29:00,SystemResetWarning,0829.9,5.00,000.00,031.2,030.5,000.0,039.7,032.9,032.2,0002.4,0009.63,0014.39,0008.90
2024-06-10 12:30:00,SystemResetWarning,0830.0,4.99,000.00,031.2,030.5,000.0,039.7,032.9,032.1,0002.2,0009.65,0013.72,0008.92
2024-06-10 12:31:00,SystemResetWarning,0830.0,5.00,000.00,031.2,030.5,000.0,039.7,032.9,032.0,0002.4,0009.62,0013.42,0008.90
2024-06-10 12:32:00,SystemResetWarning,0830.0,5.00,000.00,031.2,030.5,000.0,039.7,032.9,032.0,0001.8,0009.58,0012.89,0008.87
2024-06-10 12:33:00,SystemResetWarning,0830.0,4.99,000.00,031.2,030.5,000.0,039.7,032.9,031.7,0001.4,0009.55,0013.21,0008.86
2024-06-10 12:34:00,SystemResetWarning,0830.0,5.00,000.00,031.2,030.5,000.0,039.7,032.9,031.7,0001.1,0009.53,0013.26,0008.85
2024-06-10 12:35:00,SystemResetWarning,0830.0,5.00,000.00,031.2,030.5,000.0,039.7,032.9,031.7,0000.8,0009.54,0013.30,0008.84
2024-06-10 12:36:00,SystemResetWarning,0830.0,5.00,000.00,031.2,030.5,000.0,039.7,033.0,031.7,-000.1,0009.53,0013.50,0008.85
2024-06-10 12:37:00,SystemResetWarning,0830.0,5.01,000.00,031.2,030.5,000.0,039.7,032.9,031.6,-000.1,0009.50,0013.16,0008.84
2024-06-10 12:38:00,SystemResetWarning,0830.0,5.00,000.00,031.2,030.5,000.0,039.7,032.9,031.7,-000.3,0009.44,0013.18,0008.81
2024-06-10 12:39:00,SystemResetWarning,0830.0,5.01,000.00,031.3,030.5,000.0,039.7,032.9,031.7,-000.4,0009.41,0013.73,0008.81
2024-06-10 12:40:00,SystemResetWarning,0830.0,4.99,000.00,031.3,030.5,000.0,039.7,033.0,032.1,-000.3,0009.38,0013.93,0008.79
2024-06-10 12:41:00,SystemResetWarning,0830.0,4.99,000.00,031.3,030.5,000.0,039.7,033.0,032.2,-000.4,0009.37,0013.96,0008.78
2024-06-10 12:42:00,SystemResetWarning,0830.0,5.00,000.00,031.3,030.5,000.0,039.7,033.0,032.2,-001.2,0009.41,0013.96,0008.82
2024-06-10 12:43:00,SystemResetWarning,0830.1,5.01,000.00,031.3,030.5,000.0,039.7,033.0,032.3,-001.6,0009.46,0013.93,0008.89
2024-06-10 12:44:00,SystemResetWarning,0830.1,5.01,000.00,031.3,030.5,000.0,039.7,033.0,032.3,-001.8,0009.54,0014.12,0008.96
2024-06-10 12:45:00,SystemResetWarning,0830.1,5.00,000.00,031.3,030.5,000.0,039.7,033.0,032.2,-001.9,0009.62,0013.94,0009.04
2024-06-10 12:46:00,SystemResetWarning,0830.1,4.99,000.00,031.3,030.5,000.0,039.7,033.0,032.0,-001.6,0009.70,0014.04,0009.15
2024-06-10 12:47:00,SystemResetWarning,0830.1,5.00,000.00,031.3,030.5,000.0,039.7,033.0,032.0,-001.4,0009.84,0014.15,0009.24
2024-06-10 12:48:00,SystemResetWarning,0830.1,4.99,000.00,031.3,030.5,000.0,039.7,033.0,032.2,-001.8,0009.93,0014.76,0009.32
2024-06-10 12:49:00,SystemResetWarning,0830.1,5.01,000.00,031.3,030.5,000.0,039.7,033.0,032.3,-001.6,0010.08,0014.84,0009.44
2024-06-10 12:50:00,SystemResetWarning,0830.1,5.01,000.00,031.3,030.5,000.0,039.7,033.0,032.4,-001.3,0010.17,0014.55,0009.52
2024-06-10 12:51:00,SystemResetWarning,0830.1,4.99,000.00,031.3,030.5,000.0,039.7,032.9,032.5,-001.1,0010.27,0014.20,0009.63
2024-06-10 12:52:00,SystemResetWarning,0830.1,4.99,000.00,031.3,030.5,000.0,039.7,032.9,032.6,-001.3,0010.36,0014.91,0009.73
2024-06-10 12:53:00,SystemResetWarning,0830.1,5.03,000.00,031.3,030.5,000.0,039.7,032.9,032.8,-001.0,0010.48,0015.87,0009.84
2024-06-10 12:54:00,SystemResetWarning,0830.1,4.99,000.00,031.3,030.5,000.0,039.7,033.0,032.8,-000.4,0010.59,0016.53,0009.94
2024-06-10 12:55:00,SystemResetWarning,0830.1,4.98,000.00,031.3,030.5,000.0,039.7,033.0,032.6,-000.1,0010.71,0016.66,0010.01
2024-06-10 12:56:00,SystemResetWarning,0830.1,5.00,000.00,031.3,030.5,000.0,039.7,033.0,032.6,0000.0,0010.74,0016.77,0010.06
2024-06-10 12:57:00,SystemResetWarning,0830.2,5.01,000.00,031.3,030.5,000.0,039.8,033.0,032.7,-000.1,0010.79,0016.81,0010.12
2024-06-10 12:58:00,SystemResetWarning,0830.1,5.01,000.00,031.3,030.5,000.0,039.8,033.0,032.7,-000.2,0010.85,0016.79,0010.21
2024-06-10 12:59:00,SystemResetWarning,0830.2,4.99,000.00,031.3,030.6,000.0,039.8,033.0,032.7,0000.2,0010.96,0016.22,0010.31
